Location: Unspecified
(0.0000°N, 0.0000°E)
Time: 15:43:24
(UTC+00:00)

SR - All Passes

Search period start: 18 September 2014 00:00
Search period end: 28 September 2014 00:00
Orbit: 575 x 890 km, 66.7° (Epoch: 09 September)

Date Brightness Start Highest point End Pass type
(mag) Time Alt. Az. Time Alt. Az. Time Alt. Az.
18 Sep - 08:28:29 10° N 08:32:53 29° ENE 08:36:57 10° SE daylight
18 Sep - 10:12:09 10° WNW 10:14:40 14° WSW 10:17:06 10° SW daylight
18 Sep - 20:53:25 10° SSW 20:58:28 78° ESE 21:03:59 10° NNE night (unlit)
19 Sep - 07:43:02 10° NE 07:44:33 11° ENE 07:46:02 10° E daylight
19 Sep - 09:22:00 10° NW 09:26:36 37° WSW 09:30:50 10° S daylight
19 Sep - 20:05:55 10° S 20:10:22 31° ESE 20:15:07 10° NE night (unlit)
19 Sep - 21:48:59 10° WSW 21:52:21 17° WNW 21:55:53 10° NNW night (unlit)
20 Sep - 08:33:25 10° NNW 08:38:29 81° ENE 08:43:05 10° SSE daylight
20 Sep - 19:20:14 10° SE 19:22:16 12° ESE 19:24:22 10° E night (unlit)
20 Sep - 20:59:14 10° SW 21:04:03 41° WNW 21:09:16 10° N night (unlit)
21 Sep - 07:45:51 10° N 07:50:15 30° ENE 07:54:19 10° SE daylight
21 Sep - 09:29:42 10° W 09:32:01 13° WSW 09:34:17 10° SW daylight
21 Sep - 20:10:45 10° SSW 20:15:50 80° ESE 20:21:24 10° NNE visible
22 Sep - 07:00:16 10° NE 07:01:55 12° ENE 07:03:31 10° E daylight
22 Sep - 08:39:26 10° NW 08:43:57 35° WSW 08:48:08 10° S daylight
22 Sep - 19:23:13 10° S 19:27:43 32° ESE 19:32:34 10° NE visible
22 Sep - 21:06:24 10° WSW 21:09:44 17° WNW 21:13:13 10° NNW visible
23 Sep - 07:50:48 10° NNW 07:55:49 83° ENE 08:00:25 10° SSE daylight
23 Sep - 18:37:22 10° SE 18:39:37 13° ESE 18:41:57 10° E visible
23 Sep - 20:16:35 10° SW 20:21:25 40° WNW 20:26:38 10° N visible
24 Sep - 07:03:12 10° N 07:07:35 31° ENE 07:11:40 10° SE daylight
24 Sep - 08:47:14 10° W 08:49:22 13° WSW 08:51:26 10° SW daylight
24 Sep - 19:28:04 10° SSW 19:33:12 83° ESE 19:38:47 10° NNE visible
25 Sep - 06:17:30 10° NE 06:19:15 12° ENE 06:20:58 10° E daylight
25 Sep - 07:56:50 10° NW 08:01:16 34° WSW 08:05:24 10° S daylight
25 Sep - 18:40:29 10° S 18:45:04 33° ESE 18:49:59 10° NE visible
25 Sep - 20:23:47 10° WSW 20:27:05 17° WNW 20:30:31 10° NNW visible
26 Sep - 07:08:10 10° NNW 07:13:09 86° ENE 07:17:42 10° SSE daylight
26 Sep - 17:54:30 10° SE 17:56:58 13° ESE 17:59:30 10° E daylight
26 Sep - 19:33:55 10° SW 19:38:46 39° WNW 19:43:58 10° N visible
27 Sep - 06:20:31 10° N 06:24:55 31° ENE 06:28:59 10° SE daylight
27 Sep - 08:04:46 10° W 08:06:41 12° WSW 08:08:33 10° SW daylight
27 Sep - 18:45:22 10° SSW 18:50:32 85° ESE 18:56:09 10° NNE visible
